Regional Weather Roundup
Issued by NWS

Home | Current Version | Previous Version | Text Only | Print | Product List | Glossary Off
Versions: 1 2 3 4 5 6 7 8 9 10 11 12 13 14 15 16 17 18 19 20 21 22 23 24 25 26 27 28 29 30 31 32 33 34 35 36 37 38 39 40 41 42 43 44 45 46 47 48 49 50

000
ASUS43 KMKX 010411
RWRWI

WISCONSIN REGIONAL WEATHER ROUNDUP
NATIONAL WEATHER SERVICE MILWAUKEE/SULLIVAN WI
1100 PM CDT FRI OCT 31 2014

NOTE: "FAIR" INDICATES FEW OR NO CLOUDS BELOW 12,000 FEET WITH NO
SIGNIFICANT WEATHER AND/OR OBSTRUCTIONS TO VISIBILITY.

WIZ001-002-006>008-014>016-023>028-010500-
NORTHWEST WISCONSIN

CITY           SKY/WX    TMP DP  RH WIND       PRES   REMARKS
SUPERIOR ARPT  CLEAR     21  19  92 CALM      30.48F
ASHLAND        CLEAR     22  18  85 W3        30.49S
HAYWARD        CLEAR     22  18  85 CALM      30.47S
SIREN          CLEAR     21  17  81 CALM      30.49S
CUMBERLAND     CLEAR     23  21  93 CALM      30.48S
RICE LAKE      CLEAR     24  22  89 CALM      30.50S
CHETEK         CLEAR     23  20  87 CALM      30.49S
LADYSMITH      CLEAR     25  20  83 CALM      30.48F
EAU CLAIRE     CLEAR     20  16  84 CALM      30.48S
MENOMONIE      CLEAR     25  19  80 CALM      30.50S
NEW RICHMOND   CLEAR     21  17  84 CALM      30.49S
OSCEOLA        CLEAR     21  17  86 CALM      30.53S
$$

WIZ003>005-009-010-017-018-010500-
NORTH CENTRAL WISCONSIN

CITY           SKY/WX    TMP DP  RH WIND       PRES   REMARKS
MANITOWISH WTR   N/A     15  14  95 CALM      30.44S FOG
ARBOR VITAE      N/A     19  17  93 CALM      30.44S FOG
WOODRUFF         N/A     19  17  93 CALM      30.44S FOG
RHINELANDER    PTCLDY    25  18  74 CALM      30.44F
EAGLE RIVER    MOCLDY    22  18  85 CALM      30.43F
LAND O LAKES   MOCLDY    21  20  95 CALM      30.44S
PHILLIPS       CLEAR     20  18  90 CALM      30.45F
TOMAHAWK       CLEAR     24  19  83 CALM      30.46S
MEDFORD        CLEAR     24  19  81 CALM      30.46R
MERRILL        PTCLDY    27  20  73 CALM      30.46S
$$

WIZ029-030-035-036-043>047-010500-
CENTRAL WISCONSIN

CITY           SKY/WX    TMP DP  RH WIND       PRES   REMARKS
WAUSAU         CLEAR     28  18  66 N5        30.45S WCI  23
MOSINEE        CLEAR     28  21  74 N6        30.46F WCI  22
MARSHFIELD     CLEAR     28  19  69 N6        30.46S WCI  22
STEVENS POINT  CLEAR     26  17  70 NW3       30.46F
WAUPACA        MOCLDY    28  19  67 N3        30.47S
WAUTOMA        PTCLDY    27  17  65 CALM      30.48R
WISC RAPIDS    CLEAR     26  18  71 NE5       30.48S WCI  20
CAMP DOUGLAS   CLEAR     22  20  90 CALM      30.48R
$$

WIZ011>013-019>022-031-037>040-048>050-010500-
NORTHEAST WISCONSIN

CITY           SKY/WX    TMP DP  RH WIND       PRES   REMARKS
ANTIGO         PTCLDY    26  19  76 N6        30.44S WCI  19
SHAWANO        CLOUDY    33  19  56 N6        30.46F WCI  28
OCONTO         CLOUDY    33  23  68 N7        30.45S WCI  26
STURGEON BAY   CLOUDY    34  21  60 NE13G20   30.42S WCI  25
GREEN BAY      CLOUDY    33  20  58 N12       30.45S WCI  24
MANITOWOC      CLOUDY    35  24  64 N12G17    30.42S WCI  27
APPLETON       MOCLDY    32  18  55 N12       30.45S WCI  23
CLINTONVILLE   CLOUDY    30  19  64 N5        30.46F WCI  25
OSHKOSH        MOCLDY    32  18  56 N16G23    30.45R WCI  21
$$

WIZ032>034-041-042-053>061-010500-
SOUTHWEST WISCONSIN

CITY           SKY/WX    TMP DP  RH WIND       PRES   REMARKS
LA CROSSE      CLEAR     32  18  56 NE6       30.49S WCI  26
SPARTA         CLEAR     26  18  72 NE5       30.49F WCI  20
VIROQUA        CLEAR     28  20  74 NE6       30.45S WCI  21
BOSCOBEL       CLEAR     22  17  81 CALM      30.48F
PRAIRIE DU CHI CLEAR     31  19  59 NE3       30.48S
PLATTEVILLE    CLEAR     26  19  76 N6        30.45F WCI  19
$$

WIZ056-057-062-063-064-067-068-010500-
SOUTH CENTRAL WISCONSIN

CITY           SKY/WX    TMP DP  RH WIND       PRES   REMARKS
REEDSBURG      CLEAR     29  19  65 N6        30.46S WCI  23
BARABOO/DELLS  CLEAR     29  17  60 N6        30.46R WCI  23
LONE ROCK      CLEAR     34  17  50 N7        30.48R WCI  28
MINERAL POINT  CLEAR     30  19  64 N6        30.44S WCI  24
MADISON        PTCLDY    27  18  69 N7        30.45R WCI  19
MIDDLETON      CLEAR     31  19  61 N9        30.45S WCI  22
WATERTOWN      CLOUDY    32  19  57 NE14G20   30.42R WCI  22
MONROE         CLEAR     30  21  69 N12G17    30.42S WCI  21
JANESVILLE     CLOUDY    36  18  48 NE13G20   30.41S WCI  27
$$

WIZ051-052-058>065-066-070>072-010500-
SOUTHEAST WISCONSIN

CITY           SKY/WX    TMP DP  RH WIND       PRES   REMARKS
MILWAUKEE      FLURRIES  35  19  52 N15G26    30.37S WCI  25
WAUKESHA       CLOUDY    32  19  59 N13G18    30.40S WCI  22
MILWAUKEE/TIMM CLOUDY    34  18  51 N10G24    30.40S WCI  26
RACINE         CLOUDY    37  23  56 N15G24    30.38R WCI  28
BURLINGTON     CLOUDY    32  17  52 N16       30.39S WCI  22
KENOSHA        CLOUDY    35  21  56 N15G22    30.37R WCI  25
FOND DU LAC    CLOUDY    34  19  54 N17G25    30.44S WCI  23
SHEBOYGAN      CLOUDY    34  21  59 N16G28    30.40F WCI  24
WEST BEND      CLOUDY    32  19  59 N14G20    30.40S WCI  22
JUNEAU         CLOUDY    32  18  56 N16       30.44S WCI  21
$$

LSZ147-162-010500-
LAKE SUPERIOR

STATION/POSITION TIME  TEMP    WIND        PRES    WAVE
                       AIR SEA DIR/SP/G            HT/PER
                 (UTC) (F)     (DEG/KT/KT) (MB)    (FT/S)
W MID LAKE BUOY  0350   35 44  360/  6/  8 1032.7S   3/ 6
DEVILS ISLAND    0400   36     200/  3/  4 1032.9S
PORT WING        0300   27     150/  2/  3 1032.2
SAXON HARBOR     0300   28     190/  2/  4 1032.2S
$$

LMZ867-665-643>646-010500-
LAKE MICHIGAN

STATION/POSITION TIME  TEMP    WIND        PRES    WAVE
                       AIR SEA DIR/SP/G            HT/PER
                 (UTC) (F)     (DEG/KT/KT) (MB)    (FT/S)
CHAMBERS ISLAND  0300   36     330/ 19/ 32 1030.5
N MID LAKE BUOY  0350   36 48   10/ 23/ 33 1029.7S   6/ 6
NORTHPORT PIER   0400   36      10/ 19     1030.1F
SISTER BAY       0228          360/ 23/ 34   N/A
KEWAUNEE LAKESHO 0300   35      10/ 12/ 18 1029.0R
SHEBOYGAN LAKESH 0400   36 47  350/ 22/ 30 1030.3F
PORT WASHINGTON  0300   36     340/  9/ 14 1029.8
ATWATER BUOY     0400   39     360/ 21/ 29 1029.1S
MILWAUKEE LAKESH 0315   36     350/ 17/ 24   N/A
S MID LAKE BUOY  0350   39 48   10/ 25/ 33 1026.8R  13/10
KENOSHA   LAKESH 0400   39      30/ 29/ 37 1027.4R
$$

TC  - TEMPERATURE IN CELSIUS
VSB - VISIBILITY IN STATUTE MILES
WCI - WIND CHILL INDEX
HX  - HEAT INDEX




USA.gov is the U.S. government's official web portal to all federal, state and local government web resources and services.